ECMWFFLT1_925_spd_096.txt.gz
Wind_Speed
13 13 12 13 13 12 12 13 13 14 14 13 12 11 10 10 9 8 9 12 13 12 12 12 13 13 13 13 12 11 11 13 13 13 14 14 13 14 15 16 18 20 21 18 15 11 5 4 6 9 12 15 19 24 27 28 29 30 30 32 33 33 32
11 12 11 12 12 12 12 12 12 12 13 13 13 13 12 12 11 10 10 11 11 11 11 11 12 12 12 11 11 10 10 12 13 12 13 15 16 17 17 17 16 16 18 19 20 17 10 7 6 6 9 11 14 21 26 27 29 30 31 32 34 34 33
11 11 11 13 13 13 13 13 13 12 12 12 12 13 13 13 12 11 11 11 10 10 10 10 11 12 12 11 11 10 11 11 13 13 13 15 17 19 19 18 15 13 12 12 15 17 13 11 9 7 9 9 9 15 22 25 28 30 31 33 33 32 33
12 12 13 14 15 15 14 14 13 12 12 12 12 12 13 12 12 12 12 11 11 11 10 10 10 11 12 12 11 11 11 12 14 14 14 15 17 18 19 18 17 16 14 12 14 16 12 10 10 7 10 13 13 15 19 22 25 26 29 32 33 33 33
12 12 13 13 14 14 14 14 13 12 12 12 12 12 11 12 12 12 12 12 12 13 13 12 10 11 11 12 13 12 12 13 14 14 14 16 17 18 18 18 18 18 19 20 21 20 16 15 13 7 9 13 12 15 21 21 21 24 26 28 32 33 33
11 12 12 12 12 13 13 14 14 14 14 14 13 13 12 12 12 12 12 12 12 13 15 14 13 12 11 11 12 13 13 14 15 16 15 16 17 17 18 19 19 18 20 22 23 23 21 21 17 10 12 14 10 12 18 19 19 21 23 25 28 30 31
12 13 14 14 14 14 14 14 15 15 14 14 14 14 12 12 12 12 11 11 11 13 13 14 13 13 12 10 11 11 12 14 15 16 16 16 16 16 17 19 20 19 20 21 22 22 22 22 19 14 12 12 12 12 13 16 18 17 18 24 28 28 29
15 16 16 17 16 16 15 15 15 14 14 14 13 13 12 11 11 11 11 11 11 12 12 12 13 13 13 12 12 11 11 12 13 13 13 14 15 15 17 18 20 20 20 21 21 22 23 23 23 22 15 7 8 10 8 12 16 16 20 24 25 27 28
16 17 17 17 17 16 15 15 15 15 14 13 13 13 13 12 11 11 11 11 12 12 14 15 15 15 15 16 16 15 14 14 14 13 13 13 13 14 15 17 18 20 20 20 20 21 24 25 25 27 22 12 8 7 5 7 8 13 23 25 21 25 27
17 17 17 17 16 15 15 16 16 15 14 14 14 13 13 12 12 12 11 12 13 14 16 17 18 19 20 21 20 19 18 18 17 16 16 15 14 14 14 15 17 19 19 19 20 20 22 23 24 26 24 20 16 8 4 6 5 8 17 22 21 23 26
17 17 17 17 16 16 17 19 19 18 17 15 14 14 14 13 13 14 13 13 15 17 18 20 20 21 21 22 22 22 21 21 21 20 19 18 17 16 15 15 16 18 19 19 20 21 21 22 23 24 25 25 23 17 9 6 6 9 13 18 22 24 25
16 16 16 16 17 18 19 20 21 21 18 17 16 15 16 15 14 15 15 15 18 19 19 19 19 20 20 20 21 21 21 21 22 22 21 20 20 19 19 17 17 17 18 19 21 22 23 23 23 23 24 25 26 25 22 12 6 12 16 17 22 25 24
15 15 16 16 17 19 18 18 20 20 18 17 17 17 17 16 16 16 16 17 18 20 20 20 21 22 22 23 23 23 23 23 23 23 22 21 21 21 21 21 20 19 18 19 21 22 24 25 24 24 23 25 25 25 27 20 9 12 21 21 22 25 25
16 15 16 16 17 17 17 17 18 20 19 17 17 17 17 17 17 17 18 18 19 22 24 24 26 27 26 26 26 25 25 25 24 24 24 24 23 23 23 22 22 22 20 20 20 22 24 25 25 25 24 24 25 25 26 23 14 12 20 23 23 25 25
16 15 15 16 16 16 16 16 17 20 20 19 17 17 17 17 17 17 18 18 19 23 25 26 28 28 27 28 28 26 26 25 25 24 24 25 24 24 24 23 23 24 23 22 22 22 23 24 25 26 25 24 26 26 25 26 21 14 16 22 23 25 25
17 16 16 16 16 16 15 16 17 20 21 21 20 18 17 17 17 17 18 18 19 21 23 26 30 30 27 27 28 27 26 24 24 24 24 24 24 24 24 23 24 25 24 24 25 25 24 24 25 26 27 27 27 27 26 26 25 18 16 21 23 24 26
19 19 19 18 17 17 16 16 19 22 23 24 23 20 17 17 17 18 18 19 20 21 23 26 30 31 29 28 27 27 26 24 23 22 23 24 24 24 24 23 24 24 23 23 24 24 23 23 25 26 28 28 27 28 27 25 25 24 20 20 22 24 26
20 21 21 21 21 20 20 20 22 24 25 26 26 24 20 18 18 18 19 19 19 21 25 28 31 32 32 30 29 27 26 25 23 22 22 23 23 23 24 24 25 24 22 21 22 22 23 23 24 25 27 29 27 27 28 26 26 27 24 22 23 23 24
19 20 21 22 23 23 24 24 24 25 25 26 26 26 25 22 20 20 20 20 20 23 27 30 32 33 33 32 31 29 27 26 24 22 22 23 23 23 23 23 22 21 20 21 22 23 24 24 24 25 26 28 29 28 28 27 27 26 25 25 26 24 22
16 18 19 19 20 22 24 25 25 25 25 26 26 26 26 25 24 24 24 24 24 26 29 31 33 34 34 33 32 30 28 26 24 23 22 22 22 22 23 22 19 19 19 20 22 24 25 25 25 26 26 28 29 29 30 29 27 26 25 24 25 24 23
14 15 16 16 17 19 21 23 24 25 25 26 27 27 26 26 26 26 26 26 26 28 30 32 34 34 34 33 32 31 29 25 23 23 22 21 21 21 22 22 21 20 20 20 22 24 24 25 26 28 28 27 27 27 29 30 29 28 27 25 23 24 24
13 13 14 15 16 17 19 20 22 23 25 26 26 26 26 26 26 27 27 27 27 29 31 33 34 34 34 33 31 30 28 25 22 22 21 21 23 23 23 22 22 22 22 22 23 23 25 27 28 29 29 28 27 26 26 28 29 28 27 24 22 22 22
14 14 14 15 16 18 18 20 21 23 24 25 25 26 26 27 27 27 28 28 28 29 31 33 33 33 33 32 30 29 27 24 22 21 21 22 25 25 24 24 24 23 22 22 23 25 28 30 29 28 30 30 28 27 25 26 27 27 26 23 20 20 18
14 14 15 16 17 18 19 21 22 23 24 25 25 26 26 27 28 28 28 28 28 28 31 33 34 34 33 32 31 29 27 25 22 20 20 22 23 24 25 26 26 25 24 23 25 28 30 31 31 33 34 33 32 30 28 28 29 29 27 24 21 20 18
15 16 17 18 18 19 20 22 23 24 25 25 25 26 27 28 28 28 28 29 28 28 31 33 34 34 34 33 32 30 28 26 23 22 22 22 21 22 24 26 27 28 27 26 27 30 30 32 35 38 39 38 37 35 32 32 33 34 31 27 24 22 21
18 18 19 19 19 21 22 23 24 25 26 26 27 27 28 28 28 28 29 30 29 29 30 33 34 34 35 34 33 32 30 28 26 25 25 23 21 21 24 26 27 27 28 29 31 32 32 36 40 41 41 42 42 40 36 33 35 39 39 34 29 26 23
20 20 20 21 22 23 24 24 25 25 26 27 27 28 28 28 28 28 28 29 30 29 31 33 34 34 35 35 34 34 32 30 29 28 27 25 21 20 23 25 25 27 29 31 33 35 37 40 42 42 42 43 43 41 37 33 32 37 42 41 37 33 29
21 21 21 22 23 24 24 24 24 24 25 26 26 26 27 27 28 28 28 29 30 31 31 33 34 34 35 36 35 35 34 33 32 32 30 28 23 21 23 24 24 26 30 33 34 36 40 41 41 40 39 39 41 39 36 33 31 32 37 41 40 38 35
21 21 21 22 23 23 23 23 22 22 24 25 25 26 26 27 27 27 28 29 30 31 31 32 33 34 34 35 36 36 35 33 32 31 31 29 24 22 24 25 26 27 30 34 37 38 39 39 38 37 34 35 38 38 35 33 30 28 30 34 35 34 34
21 21 21 22 22 21 21 21 21 21 23 25 26 26 26 26 27 27 28 29 29 30 31 32 33 34 35 36 36 35 33 31 30 28 28 27 24 25 26 26 27 29 32 36 38 38 38 38 37 34 31 31 34 34 34 32 30 24 21 26 29 28 28
19 19 19 19 19 19 20 20 20 20 22 24 25 25 25 25 26 27 28 28 28 29 31 32 33 34 35 36 36 34 30 28 28 27 26 25 25 27 31 31 30 31 34 37 37 37 38 38 36 32 29 29 29 30 31 31 28 22 16 18 22 23 23
17 17 17 17 17 18 19 19 20 20 21 22 24 25 25 26 26 26 27 28 30 30 31 33 33 34 35 35 36 35 30 27 28 27 25 25 27 30 34 36 35 35 36 37 36 36 37 37 35 31 28 26 27 29 30 27 24 20 17 17 19 20 22
15 15 14 14 15 16 17 18 19 20 20 21 22 24 26 26 26 26 26 28 30 31 31 32 33 33 34 34 35 35 31 27 26 26 25 25 27 31 36 38 38 37 38 37 36 37 38 38 35 32 31 29 27 28 27 22 19 16 12 13 14 14 17
12 12 12 12 13 14 16 17 18 19 20 21 22 24 26 27 26 26 26 27 29 31 30 31 32 33 34 34 35 35 33 29 26 24 24 25 26 30 35 38 38 39 39 38 38 38 39 39 37 35 35 32 26 23 23 20 17 14 9 5 3 3 5
10 10 10 10 11 13 14 15 17 18 19 21 22 24 25 26 27 27 27 27 28 30 31 31 32 33 34 34 34 34 33 32 28 25 25 26 28 31 34 37 38 39 39 39 38 38 39 40 40 39 37 34 28 24 24 24 23 21 18 16 15 14 13
8 8 8 9 10 11 12 14 15 17 19 20 22 23 24 26 27 27 28 28 28 30 31 32 32 32 33 34 34 33 33 32 32 30 27 27 29 31 34 36 37 38 39 39 39 39 39 41 42 41 39 36 33 31 29 29 28 25 24 25 24 23 22
7 7 7 7 8 8 10 11 13 15 17 18 20 21 23 24 26 27 28 28 29 29 30 32 32 32 32 33 33 33 33 33 34 33 32 30 30 31 34 35 37 38 39 40 39 39 40 41 41 41 40 38 36 37 36 33 30 27 27 28 26 25 25

ECMWFFLT1_925_spd_102.txt.gz
Wind_Speed
8 8 6 6 6 5 4 4 4 5 5 6 6 6 7 8 8 7 6 6 7 8 8 8 8 9 11 10 9 10 11 10 10 11 11 11 10 10 9 10 12 12 12 13 14 13 9 8 11 11 11 14 15 14 14 15 15 16 17 16 16 17 17
9 8 6 6 4 4 3 3 3 3 4 5 6 7 7 8 7 7 7 8 9 9 9 9 10 11 12 12 11 11 13 12 11 11 11 11 11 12 12 12 12 12 11 12 14 14 11 10 11 10 9 13 15 15 15 14 14 15 16 17 17 17 17
7 6 5 4 2 2 3 3 3 4 4 5 6 7 7 7 7 8 8 9 9 9 9 10 10 11 11 11 11 12 14 14 13 12 12 13 13 13 13 13 14 13 11 10 11 12 11 11 10 11 12 12 11 14 13 11 13 15 15 16 17 18 18
5 4 3 3 3 3 3 3 4 4 5 5 6 6 7 7 7 7 8 9 10 9 10 10 11 12 11 10 11 12 13 13 13 14 14 13 15 15 15 15 15 14 12 11 12 12 11 11 10 10 13 13 11 15 15 13 14 15 16 16 17 18 19
6 5 4 4 4 4 3 3 3 4 4 5 6 6 7 8 7 7 8 9 10 11 12 11 11 12 12 11 11 11 12 11 13 14 14 13 14 15 15 16 16 16 16 15 14 14 13 14 13 10 12 14 13 14 15 14 15 15 16 16 17 18 19
8 7 6 5 4 4 3 3 3 3 4 5 6 6 7 8 7 7 9 9 10 11 12 12 13 13 12 11 11 11 12 12 13 13 12 12 13 13 14 16 16 16 18 18 17 17 15 15 14 11 13 14 13 13 16 16 16 15 15 16 16 17 18
8 8 7 6 5 4 4 4 4 4 5 5 6 7 7 7 7 8 9 9 10 10 10 11 12 12 11 11 10 11 11 11 12 13 12 12 13 13 13 14 15 16 17 18 19 20 18 16 15 12 12 13 13 15 17 18 17 15 14 14 15 16 16
8 7 7 6 6 5 5 5 6 6 6 6 6 7 7 8 8 9 10 10 11 11 11 11 12 12 12 10 10 11 11 11 11 12 12 12 12 13 13 14 15 15 15 16 18 20 20 20 19 16 14 12 11 13 13 15 16 16 16 15 16 16 15
8 8 7 7 7 7 7 7 7 7 7 6 7 8 8 9 9 10 11 12 12 13 13 14 14 14 13 11 10 11 12 12 13 13 12 12 13 13 13 13 14 14 15 15 16 17 19 21 21 19 18 14 11 10 10 11 12 13 17 16 15 14 14
9 9 8 8 8 8 8 8 8 8 8 8 8 9 10 10 11 11 11 12 13 14 15 14 14 14 13 11 11 11 12 14 14 13 13 13 14 13 13 14 14 14 14 14 15 16 17 19 19 19 19 18 15 11 9 10 10 11 15 17 16 14 13
10 10 9 9 8 8 9 9 9 10 10 10 10 10 11 11 11 11 12 13 13 14 15 15 14 14 13 12 11 11 12 13 13 13 13 13 14 14 14 15 15 14 15 15 16 16 16 16 17 18 18 19 18 15 12 11 11 15 18 18 19 17 15
10 10 10 9 9 10 10 10 10 10 10 11 11 11 11 11 11 11 12 13 13 14 15 15 14 14 13 13 12 11 12 13 13 13 13 14 14 14 15 16 15 15 16 16 16 16 16 15 15 17 17 17 18 18 18 14 11 16 20 19 21 21 18
11 11 11 10 11 11 11 10 10 10 11 11 11 11 11 11 11 12 12 13 13 14 15 15 15 14 13 13 13 12 12 13 13 13 14 14 14 15 15 16 16 16 17 17 16 16 16 16 16 16 16 16 17 17 19 17 12 16 22 21 22 24 23
12 12 12 12 12 12 12 11 11 11 11 11 11 11 11 11 11 12 13 13 14 15 15 15 15 14 14 14 13 12 13 14 14 14 14 15 15 15 16 17 17 17 17 17 17 17 17 17 17 16 16 16 17 16 17 18 15 16 20 21 21 24 24
13 12 13 13 14 13 13 12 11 11 12 12 12 12 12 12 12 12 13 13 14 15 15 15 15 15 15 15 14 13 14 14 15 15 15 16 17 17 17 18 18 18 18 17 18 18 17 17 17 18 17 16 17 16 16 18 17 17 20 21 21 24 24
14 13 14 14 13 13 12 12 11 11 12 12 12 12 12 12 12 12 13 14 14 15 15 15 15 15 15 15 14 14 14 14 15 15 16 17 18 18 18 18 18 19 19 19 19 18 17 18 18 18 19 17 17 18 17 17 18 18 21 22 21 22 23
13 14 14 13 13 12 12 12 12 12 12 12 12 12 12 12 12 12 13 14 15 15 16 16 16 16 15 15 14 14 14 14 14 15 16 17 18 18 18 18 18 19 19 19 19 18 18 19 20 19 19 19 18 19 19 18 18 19 21 23 22 21 22
13 14 13 13 12 12 12 12 12 12 12 12 12 11 11 12 12 13 13 14 15 16 17 17 18 17 17 15 14 13 14 14 15 15 16 17 17 18 18 18 18 18 18 19 20 20 20 21 21 20 20 21 20 20 20 20 20 20 20 23 24 23 23
13 13 12 12 12 12 12 11 11 11 11 11 11 11 12 12 13 13 13 14 15 16 17 18 19 18 17 15 14 13 13 14 15 15 16 17 17 17 18 18 18 18 18 19 20 20 22 23 23 22 23 23 22 22 22 22 22 22 21 23 24 24 23
12 12 12 11 11 11 11 11 11 11 11 11 11 12 12 13 13 13 13 14 15 16 17 19 21 21 19 16 14 13 13 14 14 15 16 17 17 17 18 17 18 18 19 19 20 21 23 23 24 24 24 23 23 24 25 24 23 23 22 22 23 23 23
11 11 12 11 11 11 11 11 11 11 11 11 12 12 12 12 12 13 13 14 15 17 18 21 23 23 21 17 14 12 12 13 14 15 16 18 17 18 18 17 17 18 19 20 21 22 23 24 23 24 25 25 26 27 26 25 24 23 22 22 21 22 23
12 12 12 12 11 11 11 11 11 12 12 12 12 12 12 12 12 13 13 13 15 17 19 23 25 25 22 17 13 12 13 14 15 15 17 18 18 17 18 18 18 19 20 21 22 23 24 23 23 25 27 28 28 28 27 26 25 23 22 21 21 22 22
12 12 12 12 11 11 11 11 11 12 12 12 12 12 12 12 12 12 13 13 14 16 20 25 26 24 22 17 12 12 13 13 15 15 17 18 18 18 19 19 19 20 21 22 23 24 23 25 27 29 29 29 28 28 27 26 25 23 22 21 21 21 21
13 13 12 12 11 11 11 11 12 12 13 13 12 12 12 12 12 12 12 13 14 15 20 25 26 25 22 17 12 11 12 13 14 15 18 19 19 20 21 21 21 22 22 23 25 24 24 29 34 34 33 32 29 27 26 25 25 24 24 23 23 23 22
13 13 13 12 12 11 12 12 13 12 13 13 12 13 12 12 12 11 11 12 14 16 21 25 26 26 23 18 16 12 12 14 14 16 18 19 19 21 21 22 23 23 23 25 26 25 26 30 35 36 36 34 31 27 25 25 26 26 27 27 26 25 24
13 13 13 12 12 12 13 13 12 12 12 12 12 13 13 12 12 11 10 11 13 16 23 25 26 27 24 19 18 15 13 14 15 16 19 19 19 21 21 23 24 23 25 27 27 27 28 29 31 34 35 33 30 28 26 26 26 27 30 31 30 29 29
13 13 13 13 13 13 13 13 12 11 12 12 12 12 12 12 12 11 10 11 11 15 23 26 26 28 25 20 17 16 14 14 15 16 18 19 19 20 21 23 24 24 27 28 28 31 32 30 29 30 30 30 30 29 28 27 26 25 27 29 31 32 32
14 14 14 14 14 14 13 12 12 12 12 12 12 12 11 11 11 11 11 11 11 14 22 26 26 28 27 20 16 15 13 14 16 17 18 19 19 19 21 22 23 25 28 28 29 33 35 32 29 28 27 28 30 30 29 28 26 26 26 27 29 31 33
14 14 14 14 14 14 13 12 12 12 12 12 11 11 11 11 11 12 11 11 11 12 19 26 26 27 28 22 17 15 13 13 16 17 18 20 19 19 21 22 23 27 27 27 30 34 35 33 29 26 27 28 30 29 28 27 27 28 28 29 31 32 34
14 14 14 14 13 13 13 12 12 12 12 12 11 11 11 10 11 12 12 13 12 12 17 24 26 26 28 25 18 16 15 14 15 17 19 20 20 20 21 20 23 27 27 28 32 35 35 32 27 25 26 28 30 29 29 29 30 30 30 30 30 30 30
14 14 14 13 13 12 12 12 12 12 12 12 11 11 11 11 11 11 12 14 14 13 15 21 25 26 28 27 21 16 16 15 16 18 20 20 20 21 21 20 23 28 29 31 34 36 35 32 27 24 26 28 29 29 30 33 34 33 32 30 27 26 26
14 13 13 12 12 12 12 12 12 12 12 12 12 11 11 11 11 11 11 12 14 15 15 18 24 26 27 28 24 18 16 16 16 19 20 20 20 21 22 21 24 30 33 34 36 36 35 33 28 24 25 28 28 30 33 34 34 34 33 30 28 28 27
13 13 12 11 11 11 12 12 11 12 12 12 12 11 11 11 11 11 10 10 11 14 15 16 21 25 27 28 26 21 17 16 17 19 20 20 20 21 22 22 24 30 33 35 36 36 36 36 29 23 25 29 30 32 34 32 32 35 35 32 32 31 29
12 11 11 10 10 11 11 10 10 10 11 11 12 11 11 11 11 10 10 10 10 11 13 15 18 23 26 27 27 23 19 16 16 17 19 20 19 20 22 22 23 29 32 33 35 36 37 37 30 24 27 32 32 33 32 29 30 35 35 33 33 31 29
11 10 9 9 9 9 9 9 9 9 9 10 11 11 11 11 11 10 9 10 10 10 11 13 17 21 23 23 24 24 21 18 16 16 17 19 19 19 21 20 22 29 32 31 31 34 38 38 32 30 33 34 34 35 32 29 30 33 35 35 33 30 30
9 8 8 8 8 8 8 8 8 8 8 9 10 11 11 10 11 11 10 10 11 10 10 12 16 20 21 20 21 23 22 21 19 16 15 17 18 19 20 21 24 28 31 30 27 29 36 38 34 34 36 35 35 36 32 30 32 34 37 38 33 30 32
8 8 7 7 7 7 7 6 7 8 8 9 9 10 10 10 11 11 10 10 11 12 12 12 14 18 20 18 18 21 21 22 21 18 15 15 16 18 19 23 26 27 29 30 26 25 31 38 36 36 36 34 33 33 31 30 32 35 38 38 32 30 35

ECMWFFLT1_925_spd_105.txt.gz
Wind_Speed
11 10 9 9 8 8 7 7 7 7 7 8 8 9 9 10 10 10 12 13 12 12 12 12 13 14 14 12 13 15 16 16 16 15 15 15 13 12 12 13 13 12 12 12 11 10 8 8 11 12 11 12 11 11 13 17 20 22 22 21 20 18 17
10 9 8 7 7 7 6 6 6 6 7 7 8 8 9 10 9 9 10 11 11 12 11 11 12 13 13 12 12 13 15 15 14 14 15 15 15 14 15 16 15 15 15 13 12 12 10 9 9 9 11 13 13 14 14 16 20 21 22 23 23 22 21
9 8 7 7 6 6 6 6 6 6 6 7 8 9 10 10 9 9 9 10 10 10 11 11 11 12 12 12 12 12 13 14 13 13 14 14 14 15 16 16 16 16 16 14 13 14 12 10 9 10 13 14 13 14 14 15 19 19 19 22 24 24 23
9 8 8 7 6 6 6 5 5 6 6 7 8 9 10 10 9 10 10 10 10 9 10 10 11 11 11 12 12 11 12 13 13 13 14 13 14 15 15 15 16 16 16 15 16 18 15 12 11 10 14 18 16 16 16 16 17 18 17 20 23 23 23
9 8 8 7 6 6 6 5 5 5 6 7 8 9 10 10 9 10 10 10 9 9 10 10 10 11 11 11 10 11 12 12 12 13 13 13 14 14 15 15 15 15 16 16 18 20 18 17 15 10 13 19 16 16 19 18 18 17 16 18 21 23 23
9 8 8 7 7 6 6 6 5 5 6 7 8 8 9 10 9 10 10 9 9 9 10 10 10 11 11 10 9 10 11 11 12 12 12 13 13 13 14 14 14 15 15 16 17 19 19 21 19 13 15 19 16 16 20 20 18 17 16 16 17 20 21
10 9 8 8 7 7 7 7 7 6 7 7 7 8 8 9 9 10 10 9 10 10 10 10 10 10 11 10 9 10 11 10 11 11 11 12 12 12 13 13 14 14 14 15 16 17 18 19 19 16 16 17 17 18 19 19 20 18 15 15 14 15 16
9 9 9 9 9 8 8 8 8 8 7 7 7 8 8 9 9 9 9 10 10 10 10 10 10 10 10 10 9 10 11 11 11 11 11 11 12 13 13 13 14 14 14 15 15 15 16 16 18 19 16 13 13 14 13 16 19 18 18 17 16 15 14
10 10 10 10 10 10 10 9 9 9 8 8 8 8 9 9 9 8 9 9 10 10 11 11 11 11 11 10 10 11 11 11 11 12 11 12 13 13 13 14 14 14 14 15 15 15 16 16 16 18 18 14 12 10 10 12 13 14 19 20 18 18 15
11 11 11 11 11 11 10 10 10 9 9 8 8 8 8 8 8 8 9 9 10 11 11 11 11 11 11 10 10 10 12 13 12 11 12 12 13 13 13 14 14 14 14 15 16 16 16 17 16 16 17 17 15 11 9 10 10 12 19 20 20 21 19
12 12 12 11 11 11 10 10 10 9 9 8 8 8 8 8 8 9 9 10 11 12 12 12 12 11 11 10 10 10 12 13 12 11 12 12 12 13 13 14 14 14 14 15 16 16 17 17 17 16 16 17 17 15 11 11 11 15 20 21 21 21 23
12 12 12 11 11 11 11 10 10 9 9 9 8 8 8 8 8 9 10 10 11 12 12 12 12 12 11 11 11 11 12 13 12 11 12 12 13 13 14 14 14 14 15 15 15 16 17 17 17 17 17 17 18 18 17 14 11 15 22 23 23 25 25
12 12 12 12 12 11 10 10 10 9 9 8 8 8 8 9 9 10 10 11 11 12 13 12 12 12 12 12 12 11 13 13 12 12 12 13 13 13 14 15 15 15 16 16 16 16 16 16 17 17 17 18 18 18 20 18 12 15 23 24 25 27 26
13 13 13 12 12 11 11 10 10 9 9 9 9 9 9 9 10 10 11 12 12 12 13 13 13 12 12 13 12 12 13 13 13 13 13 13 14 14 14 15 15 16 16 16 17 17 17 17 18 18 18 18 19 18 19 20 16 16 23 25 25 27 27
13 13 13 13 12 11 11 10 9 9 9 9 9 9 9 9 10 11 11 12 13 13 13 13 13 13 13 13 12 12 13 13 13 13 13 14 15 15 15 15 16 16 17 17 17 17 17 18 19 19 19 18 19 19 19 21 21 18 22 26 26 27 27
13 13 13 13 12 11 11 10 9 9 9 9 9 10 10 10 10 11 12 13 13 14 14 14 14 13 13 13 12 12 13 13 13 13 14 15 15 15 15 16 16 17 17 18 18 18 18 19 20 20 20 19 20 21 20 21 22 21 23 26 27 27 27
13 13 12 12 12 11 11 10 10 9 9 9 9 9 10 10 10 11 12 13 13 14 15 15 15 14 14 13 12 12 12 13 13 13 14 14 15 15 16 16 17 17 18 18 18 19 19 20 21 21 21 21 20 21 22 21 22 23 24 26 27 27 27
13 13 12 12 11 11 10 10 10 9 9 9 9 9 9 9 10 12 12 13 14 15 16 16 16 15 15 13 12 11 12 13 13 13 14 14 15 16 16 17 17 17 17 18 18 19 20 21 22 21 21 22 22 22 23 23 23 24 24 26 28 28 28
12 12 12 11 11 10 10 10 9 9 9 9 10 10 9 10 10 12 13 13 14 15 16 17 18 17 15 13 12 11 12 12 12 12 13 14 15 16 16 16 16 17 17 18 19 20 21 22 21 21 22 23 24 24 25 25 25 25 25 25 27 28 28
12 11 11 10 10 10 10 10 10 10 9 9 9 9 9 10 10 11 13 14 15 16 17 20 20 19 15 13 12 12 12 12 12 12 13 14 15 15 16 16 16 16 18 18 19 21 22 22 21 22 23 24 25 26 26 26 26 25 25 25 25 26 27
12 11 11 11 11 10 10 10 10 10 9 9 9 9 9 9 10 11 12 13 15 16 18 22 22 20 17 13 12 11 12 12 12 13 13 14 14 15 16 16 16 17 18 19 21 22 22 22 22 23 25 26 26 26 26 25 25 25 24 24 24 24 26
12 11 11 11 11 11 10 10 10 10 9 9 9 8 9 9 10 11 12 13 14 16 20 23 22 18 17 14 11 10 11 12 12 13 13 14 14 15 17 17 17 18 18 20 23 23 22 23 24 26 27 27 26 25 24 24 24 24 24 24 24 24 25
12 12 11 11 11 10 10 10 10 10 10 9 9 9 8 9 10 11 13 14 14 16 21 25 20 15 14 13 11 10 10 12 12 13 14 14 15 16 17 17 18 18 18 22 24 23 24 27 29 29 28 27 26 26 26 25 23 23 24 24 24 24 24
12 12 12 11 11 10 10 10 10 10 10 9 8 8 9 9 10 11 12 14 14 16 21 24 20 15 13 12 11 10 10 11 12 12 14 15 15 17 18 18 19 19 20 24 25 24 27 31 32 31 29 27 26 26 27 26 24 24 25 24 25 25 24
13 12 12 12 11 11 10 9 9 9 9 9 8 8 9 9 9 9 10 13 15 17 21 23 20 16 13 13 13 12 11 11 11 12 14 15 16 17 18 20 20 20 23 25 25 26 29 31 30 30 29 27 25 24 24 25 25 26 26 25 26 26 26
13 13 12 12 11 11 9 8 8 8 9 9 9 9 9 9 8 8 9 11 14 18 22 23 21 16 12 12 13 12 11 10 10 12 14 15 16 17 18 20 21 22 25 25 25 28 30 30 29 28 27 26 26 24 25 25 25 25 25 25 26 27 28
13 13 12 11 11 10 9 7 7 7 7 8 8 9 9 9 8 8 8 9 12 17 22 23 22 18 13 11 12 12 10 10 10 12 14 14 16 17 17 20 22 24 25 24 27 32 32 29 28 27 26 26 26 26 26 25 24 23 23 24 25 28 30
13 13 12 11 11 10 8 8 7 7 7 7 8 8 9 9 9 8 8 9 10 15 21 22 22 21 15 11 13 12 10 10 11 11 13 14 15 16 17 19 21 23 23 23 27 34 35 30 26 25 25 26 27 27 26 25 25 25 25 25 27 30 32
14 13 12 12 11 9 8 8 7 7 7 8 8 8 8 9 9 9 8 9 9 13 19 22 23 23 19 14 14 14 11 10 11 11 12 14 14 15 16 16 18 20 20 22 28 34 36 32 26 24 25 26 27 28 26 27 27 26 27 29 31 33 35
14 13 12 12 11 9 8 8 8 7 8 8 8 8 8 9 9 10 10 9 9 11 17 22 24 24 22 17 15 15 13 10 11 11 12 13 15 15 14 14 18 21 21 24 30 33 34 33 27 23 25 27 28 28 28 29 28 27 29 32 33 34 35
14 13 12 11 10 9 8 8 8 8 8 8 8 8 8 8 9 9 10 11 10 9 12 20 24 25 25 22 18 15 14 12 11 12 12 13 14 15 14 16 22 26 26 27 30 31 31 32 28 24 26 28 28 29 31 31 29 29 31 32 32 33 34
14 13 12 10 9 9 8 8 7 8 8 8 8 9 9 9 8 8 8 9 10 9 8 14 22 24 24 25 22 16 15 14 12 13 14 13 13 14 15 17 22 29 30 28 29 29 28 29 28 27 28 29 27 29 33 32 30 32 36 35 35 36 35
13 12 11 10 9 8 8 8 8 8 8 8 8 8 8 9 9 8 7 6 7 9 9 11 18 22 22 24 24 19 15 14 15 16 14 14 14 14 16 17 19 27 31 29 29 29 26 27 28 26 28 30 28 31 35 33 30 34 39 38 37 37 36
12 11 10 9 8 8 8 8 8 8 9 9 8 8 8 8 8 8 7 6 5 6 9 11 15 19 20 20 22 21 17 15 17 18 15 14 14 14 16 17 19 25 29 30 32 29 24 25 27 25 30 34 32 33 34 31 31 35 37 37 37 36 36
11 10 9 9 8 8 7 7 7 7 8 9 9 8 8 7 7 7 6 7 7 5 7 10 13 17 18 17 19 22 19 17 18 17 15 14 14 14 17 18 20 26 27 28 32 29 22 24 26 27 34 37 33 33 33 30 32 35 35 36 36 36 36
10 9 8 8 8 8 7 7 6 6 7 7 8 8 8 7 7 7 6 7 8 7 6 8 12 16 18 17 17 20 20 19 20 18 15 15 14 14 17 18 20 26 26 24 29 27 21 23 25 28 35 36 32 33 32 31 33 36 36 36 36 35 36
10 9 9 9 8 7 7 6 6 6 6 6 7 7 7 7 6 7 7 6 8 9 8 8 11 15 17 17 16 19 19 20 21 19 15 14 13 14 18 19 21 26 24 22 26 25 21 22 24 26 32 35 32 31 30 30 33 35 34 36 36 35 35

ECMWFFLT1_925_spd_111.txt.gz
Wind_Speed
23 21 20 20 18 15 13 11 10 9 8 8 8 8 9 10 10 10 9 9 10 11 11 11 10 10 11 12 12 12 12 13 14 15 16 17 15 15 17 16 15 16 14 12 11 8 4 4 10 14 15 21 21 16 19 25 26 28 27 27 28 29 30
24 23 22 20 17 15 15 13 11 10 9 8 7 7 8 9 10 11 10 9 10 11 12 11 11 13 13 13 12 13 14 15 16 17 18 19 18 17 17 17 17 18 15 13 16 14 7 4 6 8 15 23 20 16 21 24 26 27 26 27 28 30 31
22 22 20 18 17 17 17 15 12 10 9 8 6 6 6 8 11 12 12 12 12 13 13 12 13 15 14 12 12 13 14 17 17 17 18 19 18 18 18 19 19 19 15 12 15 17 11 7 6 6 12 16 16 19 23 24 25 25 25 25 26 29 31
20 19 18 18 17 16 17 15 13 11 10 8 8 9 10 11 12 12 12 13 13 13 13 12 14 16 15 12 12 13 15 17 17 17 18 18 19 19 18 19 21 20 16 14 15 17 13 9 8 6 10 14 14 18 23 25 24 23 23 23 25 28 28
18 18 18 17 15 15 16 14 13 12 11 10 12 15 16 14 11 11 11 12 13 13 13 13 13 15 16 14 14 16 18 19 18 18 19 19 20 21 19 19 21 21 20 18 17 18 16 15 12 7 10 16 13 15 22 24 22 22 21 21 26 27 25
19 19 18 17 16 16 16 14 12 11 11 13 15 16 15 12 11 12 12 13 14 14 14 14 14 15 16 16 17 18 19 19 19 19 19 19 20 20 19 19 20 22 22 21 21 21 20 19 16 10 12 15 12 14 20 21 21 22 19 20 25 25 25
20 19 18 18 17 17 15 14 13 12 13 15 15 14 13 11 12 13 13 14 15 15 15 15 15 15 15 16 17 18 19 18 18 19 19 18 19 18 18 18 21 22 22 21 21 23 23 21 18 14 14 14 12 14 17 19 21 20 19 22 23 24 26
19 19 18 17 16 16 16 14 13 13 14 14 13 13 13 13 13 14 14 14 15 16 15 15 15 15 16 16 17 18 18 17 18 20 19 19 20 20 20 20 22 23 22 22 21 22 23 22 21 20 17 12 10 10 11 15 17 17 20 23 22 22 26
17 17 16 15 14 14 13 13 14 14 14 13 11 11 12 13 14 14 14 15 16 16 16 15 15 15 16 17 18 19 18 18 18 19 19 19 20 22 22 23 24 25 24 23 23 23 24 24 23 24 22 16 11 8 7 10 12 13 19 23 23 23 26
14 14 14 14 13 12 11 13 14 14 13 13 12 12 13 13 14 14 15 15 16 17 16 16 16 16 16 17 18 19 18 17 19 20 20 20 20 22 24 24 25 25 25 24 24 24 24 24 23 22 22 20 15 9 7 8 9 12 18 23 24 26 29
14 13 12 12 12 12 13 13 13 13 13 14 13 13 13 14 15 15 15 14 15 16 17 17 17 17 17 18 18 19 18 18 20 21 20 21 22 23 25 25 26 26 25 24 24 24 23 23 23 21 19 19 17 12 9 9 9 14 21 24 26 28 32
15 15 13 14 15 15 15 13 13 14 15 14 14 14 14 14 14 15 15 14 14 15 16 17 18 18 18 18 18 19 19 19 21 21 21 22 23 24 25 26 27 26 25 25 24 24 24 24 23 21 20 18 17 16 14 11 9 14 22 25 29 31 31
15 15 16 17 18 17 16 15 16 16 15 14 14 14 14 14 14 13 14 14 14 15 16 17 18 19 19 19 19 20 19 19 21 22 21 22 22 23 25 26 26 25 25 25 25 25 25 25 24 23 21 20 18 17 17 14 10 15 22 25 29 33 33
16 17 17 17 18 18 17 17 16 16 16 16 15 14 14 14 13 12 12 12 13 14 15 17 18 19 19 19 18 19 19 19 21 21 21 21 22 22 24 25 25 24 25 26 26 26 26 27 26 25 24 22 21 19 18 17 13 16 22 24 26 32 33
19 18 18 18 19 19 18 17 17 17 17 16 16 16 15 14 13 12 13 13 12 13 14 16 17 18 19 18 18 18 18 19 20 20 20 21 21 21 23 24 24 24 26 27 26 26 27 28 27 26 25 23 21 21 19 18 16 16 21 25 26 29 31
20 20 19 19 19 18 18 18 17 18 17 16 15 16 15 13 13 14 15 15 14 13 14 15 16 17 18 18 17 18 18 18 19 19 20 21 21 21 23 24 23 23 25 26 26 26 27 28 26 25 24 22 20 20 19 19 19 18 21 24 26 27 29
21 21 19 19 19 19 19 18 17 17 17 16 15 14 13 13 14 16 17 18 17 15 14 15 15 16 17 17 18 18 17 17 17 18 20 21 21 21 23 24 22 22 24 26 26 28 29 28 26 24 24 22 19 19 19 20 21 21 21 22 25 27 27
21 21 20 19 19 19 19 18 18 17 18 18 17 15 14 14 16 18 18 18 18 16 14 14 14 15 15 16 18 18 17 16 16 17 19 20 20 20 22 23 20 20 24 26 27 30 31 30 27 25 24 21 18 19 21 22 23 23 21 20 23 25 24
21 21 21 20 20 19 18 17 17 17 18 18 17 15 15 16 17 18 18 18 18 17 14 13 13 14 15 16 17 18 17 15 15 16 17 18 18 19 20 20 18 20 25 26 27 30 31 30 28 25 23 21 21 22 23 24 25 25 23 21 22 23 23
21 21 21 21 20 20 19 18 18 17 16 16 15 15 15 16 17 18 18 18 17 17 15 14 13 14 15 15 15 16 16 15 14 16 17 17 18 19 19 18 18 21 24 25 27 29 29 29 27 24 23 23 23 24 23 25 28 29 26 22 21 22 23
21 21 21 21 21 21 21 20 20 19 18 18 18 16 15 15 16 18 18 17 17 16 16 15 14 14 14 14 14 14 15 14 13 14 15 15 17 20 19 17 17 21 23 25 27 28 28 26 25 24 24 24 24 24 24 25 27 28 25 22 22 23 24
22 21 21 21 21 21 21 21 21 20 21 21 19 16 15 15 16 17 18 17 16 15 15 15 14 13 13 13 13 13 14 14 13 12 13 13 16 19 18 15 17 20 20 23 27 28 28 26 24 23 23 24 24 25 24 24 25 25 22 21 23 24 24
23 23 22 22 22 22 21 21 21 21 21 20 17 15 16 17 17 17 17 17 16 15 14 13 11 11 11 12 12 12 13 14 13 11 11 12 15 17 15 15 19 19 17 21 26 27 28 28 26 25 24 23 23 24 23 23 23 22 20 19 21 23 22
24 24 23 23 23 23 22 21 21 21 21 19 16 14 15 17 18 17 17 17 17 15 13 11 10 10 10 11 11 11 13 14 14 12 10 11 15 15 15 18 21 18 17 20 24 26 27 28 28 28 27 24 23 24 23 22 21 22 20 19 20 22 21
25 24 23 23 23 23 23 22 20 20 20 18 16 14 14 15 17 17 17 18 18 15 12 10 10 10 10 11 11 12 12 12 13 13 11 11 13 14 16 20 21 19 18 20 22 25 25 26 27 28 28 27 24 24 24 23 22 23 22 21 22 24 25
26 24 23 23 23 23 23 22 20 19 19 18 17 15 14 13 15 16 17 18 18 17 14 10 9 9 10 10 11 10 11 10 11 13 10 8 11 14 16 21 22 20 20 20 22 24 23 24 26 27 27 27 25 23 24 25 26 26 25 24 23 26 29
26 25 24 24 24 24 23 21 20 19 18 18 17 16 13 11 12 15 18 20 19 18 16 12 9 9 10 10 9 9 11 11 11 13 9 6 9 13 15 21 23 21 20 21 23 24 23 23 25 25 26 27 25 24 24 25 28 28 27 27 25 27 31
27 26 25 24 24 24 22 21 20 18 17 17 17 16 13 11 10 11 14 18 20 20 18 14 11 10 9 9 8 8 10 10 11 15 12 6 8 13 14 19 23 22 21 22 24 24 24 23 24 25 26 27 27 26 25 26 28 29 29 29 28 29 32
27 26 25 24 23 22 21 21 20 18 17 17 16 15 14 12 10 9 10 14 18 20 19 15 13 12 11 10 8 8 8 8 10 15 15 8 6 10 14 18 21 21 22 23 24 24 24 24 24 25 26 27 28 28 28 29 30 30 30 31 31 32 34
27 26 25 24 23 22 21 20 19 18 17 17 16 15 14 12 9 8 9 12 15 18 18 16 15 15 14 14 13 12 10 9 9 12 16 13 7 6 12 18 20 20 21 23 23 23 24 25 25 26 27 28 30 30 29 31 31 31 32 32 32 34 36
27 26 25 24 23 22 21 20 18 17 17 17 17 16 15 14 12 11 12 12 13 16 17 16 15 16 17 18 18 18 14 11 10 10 13 16 13 9 12 17 17 18 21 23 22 23 25 26 26 26 27 28 30 30 31 32 32 33 33 33 34 35 38
27 26 25 24 23 21 20 19 18 16 16 16 16 14 12 12 12 13 13 12 12 14 16 16 14 15 18 19 19 19 17 14 13 12 12 15 16 14 13 13 15 18 21 22 22 25 28 27 25 26 28 29 29 30 30 32 32 33 34 34 34 36 38
26 25 25 24 22 21 21 20 19 18 17 16 14 12 10 9 9 9 9 9 11 12 13 15 15 14 16 17 17 18 17 16 16 14 12 14 15 14 12 14 16 19 20 21 22 27 30 27 22 25 30 31 29 29 29 31 33 33 33 34 35 35 38
26 25 24 23 22 21 20 20 20 20 19 16 14 13 11 9 9 8 7 6 9 10 11 14 15 12 13 14 15 16 16 15 15 14 13 14 15 14 16 18 19 19 19 20 22 27 30 25 21 26 31 30 29 29 28 31 35 33 33 35 35 35 37
26 24 23 21 20 20 19 18 19 19 17 14 13 13 11 10 9 9 8 6 7 8 10 12 13 12 10 11 12 14 14 13 13 13 12 14 15 17 18 19 19 19 18 18 21 27 29 25 23 29 31 27 29 31 29 31 35 34 34 35 35 35 37
25 24 23 22 21 20 19 17 18 17 15 13 13 12 11 9 10 11 10 8 7 7 8 10 11 10 9 8 9 11 11 11 10 11 12 13 16 17 18 18 19 19 17 17 21 26 27 24 23 29 29 25 28 33 31 31 35 34 34 35 33 34 37
25 23 23 21 20 21 19 18 18 18 16 15 14 13 12 11 12 13 12 10 9 8 7 6 8 9 9 8 8 10 11 10 10 11 12 13 15 16 17 17 17 17 17 19 20 23 26 24 21 26 29 26 27 32 32 32 34 34 33 33 33 34 37

ECMWFFLT1_925_spd_114.txt.gz
Wind_Speed
23 22 21 21 20 19 17 15 13 12 11 9 9 9 8 8 7 7 7 7 7 8 8 9 11 12 13 13 12 13 14 15 15 16 17 16 14 14 13 13 13 13 13 14 12 7 4 4 9 14 17 23 20 14 21 25 24 24 23 24 23 21 24
24 24 22 21 20 17 16 15 13 12 11 10 9 8 8 8 7 7 7 7 9 10 10 11 12 12 13 13 13 14 16 18 17 17 18 18 18 17 16 17 16 15 14 15 17 13 6 4 6 8 17 25 19 14 20 24 23 22 21 23 23 22 24
25 24 22 21 20 17 17 16 14 12 11 10 10 9 9 8 8 9 9 10 11 11 12 13 13 13 13 14 15 16 17 18 17 17 18 18 19 20 20 20 19 16 13 12 15 14 9 6 5 7 13 18 17 17 21 24 23 19 20 23 23 24 26
26 24 23 22 20 18 18 17 15 14 13 12 11 11 11 10 10 10 11 12 13 13 14 14 14 15 15 16 16 16 17 18 18 18 19 18 20 22 22 23 21 19 16 13 13 14 10 7 6 6 11 16 16 18 22 24 21 17 19 21 23 25 27
25 23 23 22 20 20 19 18 17 16 16 15 14 14 12 11 11 12 13 13 14 15 15 16 16 16 16 16 17 17 18 19 19 19 19 19 21 23 24 24 23 22 22 18 17 17 15 12 10 6 10 16 13 15 22 23 19 18 17 19 23 25 27
23 23 23 22 21 20 19 18 18 17 16 16 15 15 13 12 13 14 14 15 15 15 15 16 16 15 16 16 18 19 19 19 19 20 21 22 22 23 23 22 22 23 23 21 20 20 19 17 15 10 11 15 11 14 21 20 19 18 14 17 23 24 27
24 23 23 22 21 20 18 18 18 17 17 16 16 15 13 12 14 15 15 16 16 16 16 16 16 16 16 17 19 20 20 19 19 21 23 23 23 22 22 22 23 23 22 21 20 21 21 19 17 13 12 13 11 13 17 18 18 16 13 19 23 23 27
24 23 23 22 21 19 18 18 18 17 17 16 15 14 13 13 14 15 15 16 16 16 16 16 17 17 17 18 19 20 20 19 20 22 23 22 23 23 22 21 22 22 22 21 20 21 20 19 18 17 14 10 8 9 12 13 14 14 17 24 23 20 27
24 24 23 22 19 18 18 18 18 17 16 16 15 14 14 13 14 15 16 16 16 16 16 16 17 18 18 19 20 20 21 20 21 23 22 23 23 23 22 22 22 22 22 21 21 20 20 18 17 17 16 12 8 7 8 9 9 11 19 26 23 22 29
23 23 23 21 19 18 18 17 17 17 16 15 15 15 14 14 15 15 16 18 17 17 18 17 18 18 19 20 21 21 21 20 22 23 22 23 23 22 23 24 23 22 21 21 21 20 19 18 17 16 15 14 10 7 5 7 7 9 19 26 24 27 34
22 22 21 20 20 20 19 18 18 17 16 16 16 15 15 15 15 16 17 19 19 19 19 19 19 19 19 21 21 21 20 19 21 23 22 23 23 23 25 25 24 22 21 21 21 20 19 18 17 16 14 13 11 8 6 7 7 10 21 27 26 30 36
20 20 19 20 20 20 20 20 20 19 18 17 16 15 14 14 15 16 17 19 20 20 20 20 20 20 20 21 21 21 20 19 21 23 22 22 22 23 25 25 25 24 23 22 22 21 20 18 17 17 15 14 13 10 9 8 7 10 20 26 28 32 35
17 17 19 20 20 21 22 22 21 20 19 17 16 15 14 14 14 16 17 19 20 21 21 21 21 21 21 21 20 21 19 19 21 22 22 21 21 23 25 25 25 25 24 24 23 22 21 19 18 17 16 15 14 12 12 10 8 13 19 22 27 32 34
17 20 21 22 23 24 23 22 22 21 20 18 16 14 13 12 13 15 17 18 19 20 21 21 21 20 21 21 20 20 19 20 21 21 21 21 21 23 25 25 24 25 25 25 25 24 23 22 21 19 17 15 14 14 13 12 11 15 20 22 24 30 33
22 24 24 24 25 25 24 23 23 22 20 18 15 13 12 12 12 14 17 18 19 20 20 20 20 20 22 22 20 19 18 19 20 20 20 20 20 21 24 24 24 24 25 26 25 24 24 23 22 20 17 15 14 16 16 15 14 15 19 23 25 28 31
23 23 24 25 25 25 25 24 22 21 20 17 14 13 13 14 14 16 18 19 19 19 19 19 20 21 21 21 20 19 17 18 18 18 19 19 18 19 22 23 23 23 25 26 25 24 23 23 22 20 18 16 16 17 18 17 15 15 17 21 24 26 28
23 24 25 25 25 25 25 24 22 21 19 17 15 15 15 15 16 17 19 20 19 19 19 19 19 20 20 20 19 18 17 17 17 17 17 17 17 17 19 21 21 22 25 25 25 24 23 22 22 21 19 18 17 17 18 17 16 16 17 19 21 23 25
25 25 25 25 25 25 24 23 23 20 18 17 17 17 17 16 17 18 19 20 19 18 18 18 18 19 19 19 18 17 17 16 15 16 16 16 15 15 17 18 19 21 23 24 24 24 22 21 21 20 20 19 18 18 18 18 17 18 18 19 20 22 24
24 24 25 25 25 24 24 24 22 19 18 18 18 18 17 17 17 18 19 19 19 18 18 17 18 18 18 18 17 16 15 14 14 14 15 15 13 13 15 16 17 20 22 22 22 22 22 21 20 19 19 19 18 18 18 19 18 18 18 19 20 22 25
24 25 25 25 24 24 24 23 21 19 17 17 18 18 18 18 18 18 19 19 18 18 17 17 17 17 16 16 15 14 13 12 11 13 14 13 11 12 15 16 15 18 19 20 21 21 21 21 20 19 19 18 18 18 18 19 19 19 19 20 21 22 24
25 25 26 25 25 25 24 22 21 19 17 17 17 17 17 18 18 18 18 18 18 17 17 16 16 16 15 14 13 12 11 9 9 11 13 12 10 12 15 16 15 16 17 18 19 20 20 21 20 20 19 18 18 18 19 20 20 20 20 20 21 22 24
25 25 26 25 25 25 24 23 21 18 17 17 17 17 17 17 17 18 18 18 17 17 16 16 15 15 14 13 12 11 10 8 8 10 11 10 10 13 15 15 15 16 17 18 19 19 20 20 21 21 21 20 19 20 20 22 22 22 20 19 21 22 22
26 26 26 25 25 26 25 24 21 19 18 18 18 17 17 16 16 17 17 17 17 16 16 15 14 13 12 11 10 11 9 8 8 9 10 10 11 14 15 14 14 15 16 17 18 19 20 21 21 22 22 22 22 22 22 23 24 23 21 19 21 22 21
26 26 26 26 26 27 26 24 22 21 20 19 18 17 17 17 17 16 16 16 16 16 15 13 12 11 11 10 10 9 8 8 9 8 8 10 13 15 14 13 13 14 16 17 19 20 20 21 22 23 24 25 24 24 24 24 24 25 23 21 23 24 21
27 27 27 26 26 27 27 25 24 22 21 19 18 18 17 17 17 15 15 15 15 15 13 11 10 10 10 9 8 6 5 8 10 8 7 10 13 15 15 13 13 15 17 19 20 22 22 22 23 24 25 26 26 25 25 25 25 26 25 24 24 26 25
27 27 27 26 27 27 27 25 24 22 20 19 18 18 18 18 17 16 15 15 14 13 12 10 9 9 9 8 6 4 5 8 9 8 7 9 13 15 16 15 15 16 17 20 21 22 23 24 24 25 26 28 27 26 25 25 26 26 27 26 25 28 31
28 28 28 27 27 26 26 25 23 22 20 19 19 19 19 19 18 17 15 15 14 12 11 9 8 8 8 6 5 6 7 9 9 8 7 8 10 14 16 16 16 17 18 20 22 23 25 25 24 26 28 28 27 26 25 26 28 28 29 29 28 30 34
29 29 28 27 27 26 26 24 23 22 20 19 18 18 18 19 19 18 16 14 14 12 10 8 7 7 7 6 5 7 8 9 8 8 6 5 6 10 14 15 16 17 19 20 21 24 25 24 24 26 27 27 27 26 26 28 29 29 29 30 31 32 34
29 29 28 27 27 26 26 25 24 22 20 19 18 17 16 16 18 18 16 14 13 13 10 8 7 6 6 6 6 6 9 10 10 8 5 3 2 7 12 14 15 17 19 20 21 23 23 21 24 27 26 27 28 27 28 30 29 27 29 30 31 33 33
29 29 29 28 28 27 26 25 24 22 21 21 19 16 15 15 16 16 16 14 13 13 12 10 9 8 7 7 7 8 9 11 12 10 8 5 4 5 9 12 14 16 18 20 21 23 22 21 24 26 24 26 28 28 30 32 29 28 30 31 32 34 34
30 30 30 29 28 27 26 25 24 22 22 21 18 16 16 16 15 15 15 14 13 13 12 12 11 10 10 9 9 9 9 9 10 9 8 8 7 7 8 11 14 15 17 19 21 22 22 23 26 25 23 25 29 29 31 33 31 31 32 33 34 35 35
31 31 31 30 29 28 26 25 24 23 22 20 18 18 18 18 16 14 13 13 12 12 11 11 10 11 11 11 10 10 9 8 8 9 9 8 7 8 9 11 14 14 15 18 21 21 21 22 26 26 23 24 28 29 31 32 32 33 34 34 36 36 36
32 32 31 31 30 28 25 23 24 24 23 21 20 20 19 18 16 14 12 11 11 11 11 10 9 9 10 11 11 11 11 10 10 10 9 8 8 10 12 14 15 14 15 18 20 21 21 20 23 26 24 23 27 29 30 31 31 32 33 34 35 36 37
32 31 31 30 29 27 24 24 25 25 24 22 20 19 17 15 15 14 12 11 10 10 10 9 7 7 8 10 10 11 12 12 11 9 8 8 10 12 14 15 15 15 16 18 19 21 21 19 21 24 23 23 25 27 28 30 31 32 33 34 35 36 37
31 31 30 29 28 27 26 24 24 23 23 21 19 18 17 15 15 14 12 11 9 9 8 7 6 5 6 8 9 10 11 11 10 9 8 9 11 13 14 14 13 14 16 17 19 20 20 19 21 22 22 22 24 26 27 28 30 32 33 33 34 35 37
32 31 30 29 29 28 27 25 23 22 22 21 20 19 18 17 16 15 13 12 9 7 6 5 5 4 5 7 9 10 10 10 9 8 9 10 11 12 13 13 12 14 16 17 18 19 19 20 21 21 21 23 25 25 26 28 30 31 32 33 33 34 36
32 31 31 30 29 28 27 26 24 22 21 21 20 19 19 19 18 17 15 13 10 7 5 4 4 5 7 9 10 10 9 8 8 8 8 10 11 11 12 12 11 13 16 17 18 18 18 20 22 21 22 24 25 26 27 28 30 31 31 32 33 33 35

ECMWFFLT1_925_spd_117.txt.gz
Wind_Speed
22 21 22 22 21 20 18 16 14 13 11 10 10 10 9 9 9 8 8 9 11 11 10 11 13 14 16 17 17 17 17 17 16 17 20 18 17 17 15 14 15 15 17 17 14 8 3 4 8 11 16 23 19 15 20 25 23 21 22 23 23 26 28
24 24 23 22 21 19 18 16 14 13 12 11 10 10 10 9 9 9 9 11 12 13 13 14 15 16 17 18 19 19 19 20 20 19 22 22 21 19 17 16 16 16 17 19 21 17 8 4 6 7 19 27 20 16 20 24 23 19 19 22 24 27 28
25 25 23 22 21 19 17 16 14 13 12 12 11 11 11 11 10 11 11 13 14 14 15 16 17 18 19 20 20 20 20 21 22 22 23 23 23 22 20 20 20 19 16 16 20 19 12 7 6 7 15 20 18 20 22 24 22 19 18 21 25 27 28
27 26 24 23 21 19 18 16 15 14 13 13 12 12 12 12 12 13 14 15 16 16 17 18 19 20 20 20 20 19 20 21 22 23 24 23 23 23 23 23 23 21 17 13 14 16 11 7 6 6 12 17 16 18 22 24 21 18 17 22 27 26 26
27 27 25 24 21 20 18 17 16 15 14 14 13 13 13 13 13 15 16 16 17 18 19 20 20 20 20 19 19 20 21 22 22 22 24 23 23 23 23 23 22 21 20 16 14 15 13 9 8 5 11 17 13 13 20 23 20 17 14 22 28 23 26
26 26 25 23 21 19 18 18 17 16 15 15 14 15 15 14 15 16 17 18 19 19 20 20 20 19 19 19 21 22 23 23 22 22 23 23 22 22 22 21 21 21 20 18 16 16 15 14 12 9 11 14 9 12 19 19 18 16 11 22 29 21 26
25 24 23 21 20 19 18 17 16 15 15 16 16 16 16 16 17 18 18 19 20 20 20 20 19 19 19 21 22 23 24 23 22 22 22 21 21 21 21 22 23 22 20 18 17 17 17 17 16 13 13 14 9 10 15 15 17 16 12 24 28 20 28
24 23 22 20 19 18 17 16 15 15 16 17 17 17 17 17 19 19 19 20 20 20 20 19 19 19 20 22 22 23 23 21 21 22 22 22 22 23 23 23 23 22 20 19 18 17 17 16 17 16 14 11 6 6 9 11 15 16 16 28 27 21 30
24 23 22 20 18 17 16 16 17 17 17 17 17 17 17 18 19 19 20 21 21 20 20 19 20 20 20 21 22 22 23 22 22 24 24 25 25 24 24 23 22 21 18 17 17 16 16 14 14 16 16 12 7 6 7 7 11 13 19 29 27 25 33
23 23 22 21 19 18 18 18 18 18 17 17 17 18 18 18 19 20 21 22 21 21 21 20 20 19 19 21 21 22 23 23 24 26 25 26 26 25 24 23 21 20 18 17 17 15 15 14 14 14 15 14 10 6 6 6 8 10 21 29 25 29 37
22 22 21 21 20 20 20 19 18 18 17 17 17 18 18 19 19 20 21 22 21 21 21 20 19 19 19 21 22 22 23 23 26 27 25 25 25 25 25 24 22 22 21 21 20 18 16 15 15 14 14 14 11 8 6 7 7 11 23 29 27 31 38
22 22 22 22 21 21 20 19 19 19 18 18 18 18 18 19 20 20 21 22 21 21 21 20 19 19 20 21 22 23 22 23 26 27 26 25 25 25 25 25 24 24 24 24 23 22 20 18 16 16 14 13 12 10 8 8 7 11 21 27 29 33 35
22 22 22 22 21 21 20 20 19 20 19 18 17 17 17 18 19 20 20 21 21 21 21 21 19 19 20 21 22 22 22 23 26 27 26 25 24 25 26 26 26 25 24 24 24 23 21 19 17 16 14 13 12 10 11 10 8 13 23 25 28 33 35
21 22 22 21 21 21 21 20 20 20 19 17 15 15 16 17 18 19 20 21 21 21 21 21 19 19 20 22 21 21 21 22 24 25 25 24 24 25 26 27 26 24 23 22 22 21 20 18 17 15 13 12 12 11 12 13 11 14 23 26 27 30 32
21 22 22 21 21 22 21 20 20 18 17 15 13 13 15 17 17 19 20 20 20 21 21 20 19 19 20 22 21 20 20 21 23 24 24 23 23 23 25 25 24 23 22 21 20 19 19 18 17 16 15 13 13 13 13 15 15 15 20 27 29 29 31
21 21 21 22 22 22 21 20 19 16 15 14 12 12 14 17 18 19 20 20 20 21 21 20 19 19 20 21 21 20 20 20 22 23 24 22 20 20 21 22 22 21 21 21 20 19 18 17 17 16 15 14 14 15 16 16 17 17 19 25 29 29 31
21 22 22 23 23 23 22 20 17 15 14 12 12 13 16 18 19 19 20 21 21 21 21 20 19 19 20 19 19 19 19 21 22 23 23 21 19 17 18 19 20 19 19 20 20 19 18 17 16 15 15 15 15 17 19 19 20 20 20 23 27 29 30
23 23 24 24 24 23 22 19 17 14 13 13 13 15 17 19 20 20 20 21 21 21 20 19 19 20 19 18 18 18 18 19 21 21 20 19 17 15 15 17 18 18 18 19 19 19 18 17 17 16 16 17 18 19 21 22 23 24 23 24 27 30 30
24 24 24 24 24 23 21 18 16 14 13 13 15 16 18 20 20 21 21 20 20 20 19 18 18 19 18 17 17 17 17 18 18 18 17 17 17 15 14 15 16 17 17 18 19 19 19 19 18 19 19 20 21 21 23 25 25 26 26 26 28 29 30
24 24 24 24 24 22 20 17 16 15 14 15 16 17 19 21 21 21 21 20 20 20 19 18 17 17 17 15 15 15 15 15 15 15 15 15 16 15 13 13 15 16 17 17 19 20 20 20 21 21 21 22 23 23 24 26 26 27 27 26 27 27 29
24 24 24 24 23 21 19 17 16 16 16 16 17 18 20 22 22 21 21 20 20 20 19 18 16 16 15 14 13 13 12 13 13 13 13 13 14 14 13 13 14 15 15 16 18 19 21 21 22 23 23 24 23 23 23 25 26 26 25 25 26 26 27
24 24 25 24 24 22 20 18 18 18 17 17 18 19 20 22 22 22 21 20 20 19 18 17 16 14 13 12 12 11 10 10 11 11 12 12 13 13 12 12 12 13 14 14 16 18 19 20 22 23 24 23 23 22 22 23 25 25 24 24 24 25 26
25 25 26 25 24 23 21 19 19 18 18 18 18 18 20 21 22 21 21 20 19 18 17 16 15 14 12 11 10 10 9 9 9 10 11 12 12 12 11 10 11 13 13 14 15 17 18 18 20 21 21 21 22 21 22 24 25 25 23 22 23 25 23
26 26 26 26 25 23 21 20 20 19 18 18 18 19 19 20 21 21 20 20 18 18 17 16 15 13 12 11 9 9 9 8 8 10 11 13 13 11 10 10 12 13 13 14 16 17 16 17 19 19 18 19 20 21 23 24 25 25 23 22 24 25 23
27 27 27 26 25 23 22 21 20 19 19 19 18 19 19 20 20 20 19 19 18 17 16 15 13 12 11 11 9 8 8 9 9 9 10 12 12 10 9 10 11 12 14 15 16 17 16 16 19 18 17 19 20 22 24 23 24 25 24 23 24 26 26
28 28 27 27 26 24 23 21 21 20 20 19 18 19 19 19 20 19 18 18 17 16 15 13 12 11 11 10 7 6 7 9 10 8 8 9 10 9 8 10 12 13 14 15 15 16 16 17 20 19 18 20 22 25 26 23 22 24 25 24 24 27 29
28 28 28 28 27 25 23 22 21 20 19 19 19 19 19 18 18 18 17 17 16 15 14 12 11 10 9 8 6 6 7 9 10 7 5 5 7 8 8 11 13 14 14 14 14 16 17 19 22 20 19 21 24 27 26 23 23 24 25 26 26 28 31
27 27 28 29 28 26 24 23 21 20 19 18 18 18 18 18 18 17 16 16 16 15 13 11 10 8 7 6 5 6 8 9 9 7 4 1 4 6 8 11 13 13 14 13 14 15 17 20 22 21 20 22 25 28 26 24 24 25 25 27 28 29 31
27 28 29 29 28 27 25 24 22 20 19 18 18 18 17 17 17 16 16 15 15 14 12 9 9 8 6 6 6 7 8 8 8 6 4 1 2 4 7 10 11 11 12 13 14 15 16 18 21 21 21 22 26 28 27 25 24 24 25 26 28 29 30
29 29 30 29 29 28 26 24 23 21 19 18 18 18 17 17 16 15 14 14 13 13 11 8 7 7 7 7 7 8 8 8 7 5 3 1 1 3 6 9 9 9 11 13 15 16 15 16 20 21 20 23 27 28 28 27 25 24 25 27 28 29 31
31 31 30 30 30 29 27 25 23 21 19 18 17 17 17 17 16 14 13 13 12 12 11 8 6 6 8 9 9 9 9 8 7 5 4 3 0 3 5 7 7 8 10 13 15 15 15 16 19 20 20 23 26 28 28 28 28 27 28 29 31 31 33
31 31 30 29 29 28 27 25 23 20 19 17 17 17 18 18 16 14 13 12 11 10 10 9 7 7 8 10 11 10 10 8 7 6 5 4 1 3 4 5 6 8 9 12 13 12 14 16 18 18 20 22 24 26 27 27 28 29 31 33 34 35 36
31 31 30 29 27 27 26 25 23 21 20 18 17 18 18 17 16 15 13 12 10 9 9 8 8 8 9 10 11 10 9 8 8 8 6 3 2 3 4 5 6 8 9 11 11 12 14 16 16 17 19 21 22 23 24 25 26 28 31 34 35 36 37
31 30 30 29 27 26 25 25 24 23 21 19 20 19 18 16 16 14 13 12 10 9 8 7 8 8 9 10 10 10 10 9 9 8 4 2 3 4 4 5 6 8 9 10 10 12 14 15 15 16 18 19 19 20 21 23 25 27 29 33 35 36 37
30 30 30 29 28 27 25 24 24 23 21 21 22 21 18 17 15 14 13 11 10 9 7 6 6 7 8 9 10 10 10 10 8 6 3 2 3 4 5 5 6 8 9 9 10 12 15 16 16 17 18 18 18 19 20 22 25 26 29 32 34 35 36
30 30 30 29 29 28 25 25 25 23 23 24 24 22 19 17 16 14 13 11 9 8 7 5 5 6 7 8 10 10 10 8 6 4 3 2 3 4 5 4 6 8 8 8 11 13 15 16 16 17 18 19 19 20 21 22 25 26 29 32 33 34 35
30 30 31 30 29 27 26 26 26 25 25 25 24 22 20 19 17 16 14 12 10 8 6 5 5 6 7 9 10 9 8 6 4 3 2 2 2 4 4 4 5 6 7 8 10 13 15 16 18 19 19 20 20 21 21 23 25 27 29 31 32 33 35

ECMWFFLT1_925_spd_123.txt.gz
Wind_Speed
21 22 23 23 21 20 18 17 16 14 12 10 8 6 5 4 3 3 3 3 4 4 5 6 8 9 9 9 9 9 9 9 9 10 8 7 7 8 11 14 16 16 15 10 6 3 1 2 4 8 10 10 14 15 12 12 15 17 16 15 17 18 18
21 24 25 24 23 21 19 17 15 14 11 8 6 5 4 4 3 3 4 4 5 7 8 9 10 10 10 11 11 12 13 13 13 13 13 13 11 9 9 10 11 11 12 11 8 6 5 4 4 6 7 5 8 12 11 9 12 15 16 15 16 17 16
22 25 26 25 25 22 19 17 15 12 10 8 6 5 5 4 4 4 5 6 8 10 10 11 11 11 12 13 14 14 14 14 14 15 17 18 18 18 15 12 9 7 7 9 10 9 7 7 5 6 9 7 5 9 11 9 9 13 15 14 15 17 17
25 27 26 26 25 22 20 18 15 13 10 8 7 6 5 5 5 6 7 9 11 11 11 12 12 13 14 15 15 14 14 14 15 17 19 21 22 23 22 18 14 11 9 9 10 10 10 9 6 6 9 7 5 7 9 9 8 10 14 15 14 15 16
29 29 27 27 25 22 20 18 15 13 11 9 7 6 6 6 7 9 10 11 12 12 12 13 14 15 15 15 15 14 15 16 18 19 21 22 23 22 22 19 15 13 12 11 10 11 11 9 7 7 8 6 5 6 8 7 7 8 11 14 14 14 16
29 28 27 27 24 22 19 17 16 14 12 11 9 8 9 9 10 11 13 13 13 13 13 14 15 15 15 15 15 16 18 19 20 21 22 22 22 21 18 17 15 13 13 13 12 12 11 10 10 8 8 6 5 6 8 8 9 8 10 14 13 14 17
28 27 27 26 23 21 18 17 16 14 13 12 11 11 11 11 12 13 14 14 14 14 15 16 16 15 15 16 17 18 20 20 21 21 22 22 22 21 19 17 16 16 16 15 15 14 13 13 13 11 10 7 4 6 7 7 9 9 12 16 13 14 18
28 27 27 25 23 20 19 17 15 13 13 13 12 12 13 13 14 15 15 15 16 16 17 16 16 15 16 17 19 20 21 21 21 22 23 23 23 23 23 21 20 19 18 18 17 17 15 14 13 12 12 9 5 6 7 7 10 10 14 18 15 14 18
27 27 27 25 22 21 19 17 15 14 13 13 13 14 15 15 16 16 16 16 17 17 16 16 16 16 17 19 20 21 21 21 22 23 23 24 25 26 26 24 23 22 21 20 19 17 15 13 13 13 13 12 8 7 7 8 9 11 16 19 17 18 21
27 27 26 24 22 21 19 17 17 16 14 13 14 16 16 16 16 17 17 18 18 17 17 16 16 17 18 20 21 21 22 22 24 24 24 25 26 26 26 25 23 22 21 20 18 16 14 13 12 12 13 12 11 8 6 7 8 11 18 20 19 21 23
28 27 26 25 24 22 20 19 18 17 15 14 15 17 18 18 18 18 18 19 19 17 17 17 17 17 19 21 22 22 23 23 24 24 24 25 26 25 26 25 22 21 20 18 17 16 14 12 12 11 11 11 11 10 7 8 7 9 16 19 19 21 23
28 28 27 25 24 23 21 20 19 18 16 15 17 18 18 18 19 19 20 20 19 18 17 17 18 19 21 22 22 23 23 23 23 23 23 25 24 24 23 22 20 18 17 16 15 14 13 13 12 11 11 10 10 10 9 9 7 9 15 17 18 20 22
29 28 27 26 24 23 22 21 20 18 17 16 17 18 18 19 20 21 22 21 19 18 18 18 19 21 22 22 22 23 22 22 22 22 23 24 22 21 20 19 18 17 14 13 13 13 13 14 13 12 11 11 10 9 11 10 9 12 16 15 17 19 21
30 29 28 27 25 24 23 22 20 18 16 16 18 18 19 20 21 22 22 21 19 18 19 20 21 21 22 23 23 22 21 20 21 21 21 21 20 18 17 17 17 17 16 14 13 13 13 14 13 12 12 12 12 11 11 12 11 14 17 16 17 19 21
31 30 29 27 25 24 23 22 20 18 16 17 18 19 20 22 22 23 22 20 20 19 20 21 21 22 22 23 23 22 20 20 20 20 19 19 18 17 16 15 16 17 17 16 15 14 15 15 13 14 13 13 14 13 12 12 12 13 16 19 18 19 21
30 30 29 28 26 25 23 22 20 17 16 19 20 20 20 22 23 23 22 21 21 21 21 21 21 22 21 21 21 21 20 19 19 18 17 16 16 15 15 15 15 15 14 14 15 15 16 16 15 14 14 13 13 14 14 12 11 12 15 18 19 20 21
30 30 29 27 26 25 24 22 19 17 18 21 21 21 21 23 23 22 22 22 22 21 21 21 21 21 20 18 18 19 19 18 17 16 16 15 14 13 14 14 14 13 12 13 14 14 15 16 15 14 14 14 13 15 15 13 12 13 15 17 19 20 20
29 28 28 26 26 25 24 22 19 18 20 22 22 22 23 23 23 23 23 22 22 21 21 21 21 21 19 19 18 18 17 16 16 15 15 14 13 13 13 13 12 12 13 13 14 14 16 16 15 14 14 14 14 16 15 13 13 13 14 17 19 19 20
28 28 27 26 26 25 24 21 20 20 20 21 22 23 24 24 24 23 23 22 21 21 21 21 21 20 20 20 19 18 17 15 14 14 13 13 13 12 12 12 12 12 13 14 15 15 16 17 16 14 14 15 15 16 15 14 15 14 15 16 18 19 21
28 27 27 27 26 25 23 22 21 20 20 21 23 24 24 24 24 23 23 23 21 21 22 21 21 20 19 19 19 18 17 15 14 13 12 12 12 11 12 12 12 12 13 15 15 16 17 18 15 12 14 16 16 16 15 15 15 15 16 17 18 20 21
27 27 27 27 26 25 24 22 21 20 20 22 23 24 25 25 25 24 24 23 22 21 22 21 20 19 18 18 18 17 15 14 13 13 12 11 10 11 11 12 12 12 14 14 14 15 17 18 16 12 13 16 16 16 15 15 16 16 16 17 18 20 21
26 26 26 27 27 25 24 22 20 19 20 22 23 24 25 25 25 25 24 23 21 21 21 21 20 19 19 18 17 15 14 13 12 12 11 10 10 10 10 12 12 12 12 12 12 13 15 18 17 15 14 16 17 15 15 15 16 16 17 17 18 20 21
26 26 27 28 27 25 23 21 19 20 21 23 24 24 25 25 25 25 24 24 22 20 20 20 19 18 18 17 16 15 13 12 11 10 9 9 9 9 10 10 11 10 10 10 11 13 14 16 18 17 16 17 16 14 14 15 15 16 17 17 18 20 20
26 28 28 27 26 23 21 20 20 21 22 24 24 25 25 25 26 25 24 24 22 20 19 18 17 16 16 16 15 14 12 11 10 9 8 8 8 8 8 9 10 10 11 11 11 13 15 16 18 18 18 18 16 14 14 14 14 15 16 17 18 19 20
28 29 28 26 24 22 20 20 20 22 23 24 25 25 25 25 25 25 24 24 22 20 18 17 16 15 14 13 13 12 11 10 10 8 7 7 7 7 7 8 9 10 11 11 12 14 16 17 19 18 18 18 17 16 15 15 15 16 16 16 17 19 20
30 30 28 26 24 22 21 20 21 22 24 25 25 25 25 25 25 24 24 24 22 19 18 17 16 15 13 13 12 11 10 9 8 7 7 7 7 7 7 7 8 9 10 12 13 15 17 19 20 19 19 19 18 17 17 17 17 18 17 16 16 18 21
32 31 29 27 25 23 22 21 21 21 23 24 24 23 23 24 24 24 25 24 21 19 18 17 16 14 13 12 12 11 9 8 7 6 7 7 7 7 8 8 7 8 10 12 14 16 18 20 21 20 20 19 19 18 19 19 19 19 20 19 17 19 22
33 32 30 28 25 23 21 19 20 20 21 22 22 22 23 24 24 25 25 23 21 20 19 18 16 14 13 12 12 11 9 8 6 5 5 6 6 7 7 8 7 8 10 12 14 16 18 20 20 20 19 19 19 19 20 21 20 19 20 20 21 22 25
34 33 31 29 27 24 20 19 20 20 20 21 23 23 24 24 24 25 24 23 22 21 20 18 16 15 13 11 12 12 10 8 6 4 4 5 5 6 7 7 6 7 9 12 13 15 18 19 19 19 19 20 19 18 18 20 20 18 17 18 20 22 24
36 34 33 31 30 25 20 20 22 22 22 23 25 25 25 25 24 24 23 23 22 21 20 18 16 15 13 11 12 13 12 9 7 5 4 5 4 5 6 6 6 7 9 11 13 15 18 18 17 17 18 20 20 18 19 22 22 19 18 18 19 21 23
37 36 36 34 29 24 21 23 24 23 23 24 25 26 25 25 23 22 22 22 22 21 20 18 16 15 14 12 12 12 12 9 7 6 5 5 4 3 4 4 5 7 9 10 12 14 17 16 15 16 17 18 17 17 19 23 24 23 22 21 21 22 23
37 39 37 32 27 25 24 25 24 24 24 24 25 25 25 24 23 22 21 21 20 20 19 18 17 15 14 13 12 12 11 9 8 7 6 5 4 3 2 3 5 7 8 9 11 14 15 15 14 15 15 14 13 14 18 21 21 22 23 23 24 25 26
38 39 35 30 28 27 26 25 26 26 25 25 25 25 24 24 23 22 21 20 19 19 19 18 17 16 14 14 13 12 11 9 9 8 7 5 4 3 1 1 4 6 7 8 9 12 13 13 13 13 14 13 12 14 17 19 19 21 23 24 25 26 26
37 36 32 30 30 28 25 26 27 26 26 25 25 25 24 23 22 21 21 20 19 18 17 17 17 16 15 15 14 13 12 10 9 8 7 5 4 3 2 0 2 5 6 7 9 10 10 10 12 12 12 12 12 14 17 19 20 22 22 23 23 23 22
36 34 32 31 30 27 26 27 26 26 26 26 25 25 24 23 21 21 20 18 17 16 15 14 15 16 16 15 15 14 12 10 9 8 7 5 4 2 1 1 2 4 6 7 8 8 8 8 10 10 11 12 13 15 17 19 21 22 21 20 20 20 20
35 33 32 32 30 27 27 28 27 27 27 26 25 25 24 22 20 19 18 16 15 15 14 13 14 15 16 16 15 14 12 11 10 9 7 5 4 3 2 1 2 4 5 6 7 7 6 6 8 9 10 12 13 15 18 19 20 21 19 19 19 18 19
35 33 33 33 31 30 30 30 29 28 27 26 25 23 21 21 19 17 16 15 14 14 14 14 14 14 15 15 15 14 13 11 11 10 8 6 4 4 3 2 2 3 5 6 6 6 5 5 6 7 9 11 12 15 17 17 18 18 17 17 18 19 19